Weather History for Whitefield, NH

Change the Weather History Date:

Wednesday, December 5, 2012

  Actual Average Record
Temperature  
Mean Temperature 36 °F -  
Max Temperature 46 °F 33 °F 57 °F (1999)
Min Temperature 26 °F 15 °F -7 °F (2002)
Degree Days  
Heating Degree Days 29    
Moisture  
Dew Point 29 °F    
Average Humidity 79    
Maximum Humidity 97    
Minimum Humidity 59    
Precipitation  
Precipitation 0.58 in - - ()
Sea Level Pressure  
Sea Level Pressure 29.96 in    
Wind  
Wind Speed 6 mph (WNW)    
Max Wind Speed 16 mph    
Max Gust Speed 25 mph    
Visibility 7 miles    
Events Rain , Snow    
Averages and records for this station are not official NWS values.
T = Trace of Precipitation, MM = Missing Value Source: NWS Daily Summary

Daily Weather History Graph

Daily Weather History Graph

Search for Another Location

Airport:

Trip Planner

Search our weather history database for the weather conditions in past years. The results will help you decide how hot, cold, wet, or windy it might be!

Date:

Astronomy

Dec. 05, 2012 Rise Set
Actual Time 7:06 AM EST 4:07 PM EST
Civil Twilight 6:33 AM EST 4:39 PM EST
Nautical Twilight 5:57 AM EST 5:16 PM EST
Astronomical Twilight 5:22 AM EST 5:51 PM EST
Moon 11:05 PM EST (12/5) 11:18 AM EST (12/5)
Length of Visible Light 10h 06m
Length of Day
9h 00m
Waning Gibbous, 60% of the Moon is Illuminated
Dec 5
Waning Gibbous
Dec 6
Last Quarter
Dec 13
New
Dec 20
First Quarter
Dec 28
Full

Hourly Weather History & Observations

Time (EST) Temp. Windchill Dew Point Humidity Pressure Visibility Wind Dir Wind Speed Gust Speed Precip Events Conditions
12:52 AM 35.1 °F - 33.1 °F 92% 29.86 in 6.0 mi Calm Calm - 0.00 in Rain Light Rain
1:52 AM 36.0 °F - 35.1 °F 97% 29.83 in 3.0 mi Calm Calm - 0.05 in Rain Rain
2:31 AM 39.2 °F 33.6 °F 35.6 °F 87% 29.79 in 5.0 mi WNW 8.1 mph - 0.02 in Rain Light Rain
2:49 AM 44.6 °F 41.4 °F 42.8 °F 93% 29.80 in 2.0 mi WNW 5.8 mph - 0.06 in Rain Rain
2:52 AM 45.0 °F 40.6 °F 44.1 °F 97% 29.83 in 2.0 mi WNW 8.1 mph - 0.06 in Rain Rain
3:02 AM 46.4 °F 41.5 °F 44.6 °F 93% 29.81 in 3.0 mi WNW 10.4 mph - 0.02 in Rain Rain
3:43 AM 46.4 °F 45.2 °F 44.6 °F 93% 29.83 in 2.5 mi WSW 3.5 mph - 0.10 in Rain Rain
3:52 AM 46.9 °F - 44.1 °F 90% 29.87 in 2.0 mi Variable 3.5 mph - 0.15 in Rain Heavy Rain
4:10 AM 46.4 °F 43.5 °F 44.6 °F 93% 29.85 in 3.0 mi SSW 5.8 mph - 0.06 in Rain Rain
4:52 AM 46.0 °F 44.8 °F 44.1 °F 93% 29.87 in 5.0 mi SSW 3.5 mph - 0.18 in Rain Light Rain
5:45 AM 44.6 °F 40.7 °F 41.0 °F 87% 29.84 in 7.0 mi West 6.9 mph 19.6 mph 0.12 in Rain Rain
5:52 AM 45.0 °F 41.8 °F 41.0 °F 86% 29.88 in 7.0 mi West 5.8 mph - 0.12 in Rain Light Rain
6:52 AM 39.0 °F - 37.9 °F 96% 29.87 in 2.0 mi Calm Calm - 0.01 in   Partly Cloudy
7:07 AM 39.2 °F 37.0 °F 37.4 °F 93% 29.83 in 1.8 mi SW 3.5 mph - N/A   Partly Cloudy
7:20 AM 39.2 °F - 37.4 °F 93% 29.83 in 3.0 mi Calm Calm - N/A   Partly Cloudy
7:52 AM 37.9 °F 34.4 °F 37.0 °F 97% 29.88 in 8.0 mi SSW 4.6 mph - N/A   Partly Cloudy
9:52 AM 43.0 °F 41.3 °F 39.0 °F 86% 29.91 in 10.0 mi SW 3.5 mph - 0.01 in   Mostly Cloudy
10:52 AM 43.0 °F 36.4 °F 36.0 °F 76% 29.91 in 10.0 mi NW 12.7 mph 18.4 mph 0.00 in Rain Light Rain
11:52 AM 37.9 °F 32.7 °F 33.1 °F 83% 29.94 in 10.0 mi NW 6.9 mph - 0.00 in   Overcast
12:52 PM 37.0 °F 29.3 °F 28.9 °F 73% 29.94 in 10.0 mi WNW 11.5 mph - N/A   Overcast
1:52 PM 35.1 °F 27.9 °F 27.0 °F 72% 29.96 in 10.0 mi WNW 9.2 mph - N/A   Overcast
2:33 PM 33.8 °F 24.3 °F 24.8 °F 70% 29.93 in 10.0 mi NW 13.8 mph 19.6 mph N/A   Overcast
2:52 PM 34.0 °F 25.0 °F 24.1 °F 67% 29.98 in 10.0 mi WNW 12.7 mph - N/A   Overcast
3:52 PM 33.1 °F 23.4 °F 19.9 °F 59% 30.01 in 10.0 mi West 13.8 mph 23.0 mph N/A   Overcast
4:29 PM 30.2 °F 21.9 °F 21.2 °F 69% 30.00 in 7.0 mi WNW 9.2 mph 20.7 mph 0.00 in Snow Light Snow
4:52 PM 30.9 °F 21.2 °F 19.9 °F 64% 30.04 in 10.0 mi NW 12.7 mph 25.3 mph 0.00 in   Overcast
5:52 PM 30.0 °F 23.2 °F 18.0 °F 61% 30.07 in 10.0 mi WNW 6.9 mph 17.3 mph N/A   Overcast
6:33 PM 28.4 °F 19.1 °F 19.4 °F 69% 30.04 in 6.0 mi WNW 10.4 mph 17.3 mph 0.00 in Snow Light Snow
6:45 PM 28.4 °F 22.2 °F 19.4 °F 69% 30.04 in 9.0 mi West 5.8 mph - 0.00 in Snow Light Snow
6:52 PM 28.9 °F 19.8 °F 19.0 °F 67% 30.09 in 10.0 mi NW 10.4 mph - 0.00 in   Overcast
7:03 PM 28.4 °F 19.1 °F 19.4 °F 69% 30.05 in 8.0 mi WNW 10.4 mph - 0.00 in Snow Light Snow
7:14 PM 28.4 °F 16.6 °F 19.4 °F 69% 30.05 in 1.8 mi WNW 16.1 mph 24.2 mph 0.00 in Snow Light Snow
7:22 PM 26.6 °F 18.2 °F 21.2 °F 80% 30.06 in 2.0 mi WNW 8.1 mph 21.9 mph 0.00 in Snow Light Snow
7:30 PM 28.4 °F 20.4 °F 21.2 °F 74% 30.07 in 8.0 mi NW 8.1 mph - 0.00 in Snow Light Snow
7:52 PM 28.0 °F 18.1 °F 19.0 °F 69% 30.12 in 5.0 mi WNW 11.5 mph 16.1 mph 0.00 in Snow Light Snow
8:52 PM 27.0 °F 16.1 °F 17.1 °F 66% 30.14 in 10.0 mi WNW 12.7 mph - 0.00 in   Overcast
9:52 PM 27.0 °F 18.0 °F 17.1 °F 66% 30.14 in 10.0 mi West 9.2 mph 19.6 mph 0.00 in   Overcast
10:48 PM 26.6 °F 22.6 °F 17.6 °F 69% 30.12 in 9.0 mi Variable 3.5 mph - 0.00 in Snow Light Snow
10:52 PM 27.0 °F 18.7 °F 18.0 °F 69% 30.16 in 9.0 mi WNW 8.1 mph - 0.00 in   Overcast
11:37 PM 26.6 °F 16.2 °F 15.8 °F 64% 30.13 in 10.0 mi WNW 11.5 mph 21.9 mph 0.00 in   Overcast
11:52 PM 27.0 °F 16.7 °F 16.0 °F 63% 30.17 in 10.0 mi NW 11.5 mph 16.1 mph 0.00 in   Overcast